Rayong, Thailand

7:37 AM +07 on May 25, 2017 (GMT +0700)
U-Taphao International

Weather History for VTBU - July, 2013

Change the Weather History Date:

Wednesday, July 24, 2013

  Actual Average Record
Temperature  
Mean Temperature 83 °F -  
Max Temperature 89 °F 88 °F 93 °F (2000)
Min Temperature 77 °F 79 °F 37 °F (2010)
Cooling Degree Days 18    
Growing Degree Days 33 (Base 50)    
Moisture  
Dew Point 74 °F    
Average Humidity 75    
Maximum Humidity 89    
Minimum Humidity 58    
Precipitation  
Precipitation 0.00 in - - ()
Sea Level Pressure  
Sea Level Pressure 29.73 in    
Wind  
Wind Speed 5 mph ()    
Max Wind Speed 14 mph    
Max Gust Speed -    
Visibility 5.4 miles    
Events Rain    
Averages and records for this station are not official NWS values.
T = Trace of Precipitation, MM = Missing Value Source: Averaged Metar Reports

Daily Weather History Graph

Daily Weather History Graph

Search for Another Location

Airport or City:

Trip Planner

Search our weather history database for the weather conditions in past years. The results will help you decide how hot, cold, wet, or windy it might be!

Date:

Astronomy

Jul. 24, 2013 Rise Set
Actual Time 5:58 AM +07 6:43 PM +07
Civil Twilight 5:36 AM +07 7:05 PM +07
Nautical Twilight 5:09 AM +07 7:32 PM +07
Astronomical Twilight 4:42 AM +07 7:59 PM +07
Moon 8:01 PM +07 (7/24) 7:15 AM +07 (7/24)
Length of Visible Light 13h 29m
Length of Day
12h 44m
Full, 97% of the Moon is Illuminated
Jul 24
Full
Jul 30
Last Quarter
Aug 7
New
Aug 14
First Quarter
Aug 21
Full

Hourly Weather History & Observations

Time (+07) Temp. Heat Index Dew Point Humidity Pressure Visibility Wind Dir Wind Speed Gust Speed Precip Events Conditions
12:00 AM 78.8 °F - 73.4 °F 83% 29.77 in 4.3 mi NNE 4.6 mph - N/A Rain Light Rain
12:30 AM 78.8 °F - 73.4 °F 83% 29.74 in 4.3 mi NNE 2.3 mph - N/A Rain Light Rain
1:00 AM 77.0 °F - 73.4 °F 89% 29.74 in 4.3 mi NNE 4.6 mph - N/A Rain Light Rain
1:30 AM 77.0 °F - 73.4 °F 89% 29.74 in 4.3 mi West 2.3 mph - N/A Rain Light Rain
2:00 AM 77.0 °F - 73.4 °F 89% 29.74 in 4.3 mi SSW 2.3 mph - N/A   Mostly Cloudy
2:30 AM 78.8 °F - 73.4 °F 83% 29.71 in 4.3 mi NNE 2.3 mph - N/A   Mostly Cloudy
3:00 AM 77.0 °F - 73.4 °F 89% 29.74 in 4.3 mi East 2.3 mph - N/A Rain Light Rain
4:00 AM 77.0 °F - 73.4 °F 89% 29.71 in 4.3 mi East 2.3 mph - N/A   Mostly Cloudy
4:30 AM 77.0 °F - 73.4 °F 89% 29.68 in 4.3 mi South 2.3 mph - N/A   Mostly Cloudy
5:00 AM 77.0 °F - 73.4 °F 89% 29.68 in 4.3 mi Calm Calm - N/A   Mostly Cloudy
5:30 AM 77.0 °F - 73.4 °F 89% 29.68 in 4.3 mi South 2.3 mph - N/A   Mostly Cloudy
6:00 AM 78.8 °F - 73.4 °F 83% 29.71 in 4.3 mi Calm Calm - N/A   Mostly Cloudy
7:00 AM 78.8 °F - 73.4 °F 83% 29.74 in 5.0 mi West 4.6 mph - N/A   Mostly Cloudy
7:30 AM 80.6 °F 85.4 °F 73.4 °F 79% 29.74 in 5.0 mi West 4.6 mph - N/A   Mostly Cloudy
8:00 AM 82.4 °F 88.2 °F 73.4 °F 74% 29.74 in 5.0 mi West 4.6 mph - N/A   Mostly Cloudy
8:30 AM 82.4 °F 89.5 °F 75.2 °F 79% 29.77 in 5.6 mi WSW 6.9 mph - N/A   Mostly Cloudy
9:00 AM 82.4 °F 89.5 °F 75.2 °F 79% 29.74 in 5.6 mi West 6.9 mph - N/A   Mostly Cloudy
9:30 AM 82.4 °F 89.5 °F 75.2 °F 79% 29.74 in 5.6 mi WSW 6.9 mph - N/A   Mostly Cloudy
10:00 AM 84.2 °F 92.3 °F 75.2 °F 74% 29.74 in 5.6 mi West 5.8 mph - N/A   Mostly Cloudy
10:30 AM 84.2 °F 92.3 °F 75.2 °F 74% 29.77 in 6.2 mi West 9.2 mph - N/A   Mostly Cloudy
11:00 AM 84.2 °F 92.3 °F 75.2 °F 74% 29.77 in 6.2 mi West 9.2 mph - N/A   Mostly Cloudy
11:30 AM 84.2 °F 92.3 °F 75.2 °F 74% 29.77 in 6.2 mi West 11.5 mph - N/A   Mostly Cloudy
12:00 PM 86.0 °F 95.1 °F 75.2 °F 70% 29.74 in 6.2 mi West 9.2 mph - N/A   Mostly Cloudy
12:30 PM 87.8 °F 95.6 °F 73.4 °F 62% 29.74 in 6.2 mi West 13.8 mph - N/A   Mostly Cloudy
1:00 PM 86.0 °F 93.4 °F 73.4 °F 66% 29.74 in 6.2 mi West 9.2 mph - N/A   Mostly Cloudy
1:30 PM 87.8 °F 95.6 °F 73.4 °F 62% 29.71 in 6.2 mi West 9.2 mph - N/A   Mostly Cloudy
2:00 PM 87.8 °F 95.6 °F 73.4 °F 62% 29.71 in 6.2 mi WSW 11.5 mph - N/A   Mostly Cloudy
2:30 PM 89.6 °F 99.8 °F 75.2 °F 62% 29.71 in 6.2 mi West 6.9 mph - N/A   Mostly Cloudy
3:00 PM 87.8 °F 93.8 °F 71.6 °F 58% 29.71 in 6.2 mi WSW 9.2 mph - N/A   Mostly Cloudy
3:30 PM 89.6 °F 98.2 °F 73.4 °F 59% 29.68 in 6.2 mi West 9.2 mph - N/A   Mostly Cloudy
4:00 PM 87.8 °F 97.6 °F 75.2 °F 66% 29.68 in 6.2 mi West 11.5 mph - N/A   Mostly Cloudy
4:30 PM 86.0 °F 95.1 °F 75.2 °F 70% 29.71 in 6.2 mi West 6.9 mph - N/A Rain Light Rain
5:00 PM 86.0 °F 93.4 °F 73.4 °F 66% 29.71 in 6.2 mi West 11.5 mph - N/A   Mostly Cloudy
5:30 PM 84.2 °F 92.3 °F 75.2 °F 74% 29.71 in 6.2 mi WSW 9.2 mph - N/A   Mostly Cloudy
6:00 PM 84.2 °F 90.9 °F 73.4 °F 70% 29.71 in 6.2 mi West 4.6 mph - N/A   Mostly Cloudy
6:30 PM 84.2 °F 90.9 °F 73.4 °F 70% 29.71 in 6.2 mi WNW 3.5 mph - N/A   Mostly Cloudy
7:00 PM 84.2 °F 90.9 °F 73.4 °F 70% 29.71 in 6.2 mi West 6.9 mph - N/A   Mostly Cloudy
7:30 PM 84.2 °F 90.9 °F 73.4 °F 70% 29.71 in 6.2 mi WNW 4.6 mph - N/A   Mostly Cloudy
8:00 PM 82.4 °F 88.2 °F 73.4 °F 74% 29.71 in 5.6 mi West 3.5 mph - N/A   Mostly Cloudy
8:30 PM 82.4 °F 88.2 °F 73.4 °F 74% 29.74 in 5.6 mi Calm Calm - N/A   Mostly Cloudy
9:00 PM 82.4 °F 88.2 °F 73.4 °F 74% 29.74 in 5.0 mi Calm Calm - N/A   Mostly Cloudy
9:30 PM 82.4 °F 88.2 °F 73.4 °F 74% 29.74 in 5.0 mi Calm Calm - N/A   Mostly Cloudy
10:00 PM 82.4 °F 88.2 °F 73.4 °F 74% 29.77 in 5.0 mi WSW 4.6 mph - N/A   Mostly Cloudy
10:30 PM 82.4 °F 88.2 °F 73.4 °F 74% 29.77 in 5.0 mi West 4.6 mph - N/A   Mostly Cloudy
11:00 PM 82.4 °F 88.2 °F 73.4 °F 74% 29.77 in 5.0 mi West 3.5 mph - N/A   Mostly Cloudy
11:30 PM 82.4 °F 88.2 °F 73.4 °F 74% 29.77 in 5.0 mi West 3.5 mph - N/A   Mostly Cloudy